Regional Weather Roundup
Issued by NWS

Home | Current Version | Previous Version | Text Only | Print | Product List | Glossary Off
Versions: 1 2 3 4 5 6 7 8 9 10 11 12 13 14 15 16 17 18 19 20 21 22 23 24 25 26 27 28 29 30 31 32 33 34 35 36 37 38 39 40 41 42 43 44 45 46 47 48 49 50

000
ASUS43 KBIS 010520
RWRND

NORTH DAKOTA REGIONAL WEATHER ROUNDUP
NATIONAL WEATHER SERVICE BISMARCK ND
1200 AM CDT MON SEP 01 2014

NOTE: "FAIR" INDICATES FEW OR NO CLOUDS BELOW 12,000 FEET WITH NO
SIGNIFICANT WEATHER AND/OR OBSTRUCTIONS TO VISIBILITY.


NDZ001>003-009>011-017-010600-
NORTHWEST NORTH DAKOTA

CITY           SKY/WX    TMP DP  RH WIND       PRES   REMARKS
WILLISTON      CLEAR     53  51  93 SW6       29.75F
MINOT          MOCLDY    57  53  86 SW7       29.70S
MINOT AFB      MOCLDY    53  53  99 W7        29.70S
$$

NDZ018>021-031>035-040>046-010600-
SOUTHWEST NORTH DAKOTA

CITY           SKY/WX    TMP DP  RH WIND       PRES   REMARKS
BISMARCK       LGT RAIN  59  56  89 NW8       29.76R
DICKINSON      CLEAR     53  48  83 W6        29.78S
GARRISON         N/A     56  54  93 NW6       29.72F
HETTINGER ARPT MOCLDY    51  48  89 NW8       29.82R
$$

NDZ004>008-012>016-024-026-027-054-010600-
NORTHEAST NORTH DAKOTA

CITY           SKY/WX    TMP DP  RH WIND       PRES   REMARKS
GRAND FORKS    PTCLDY    58  55  90 NW3       29.64R
GRND FRKS AFB  CLEAR     57  56  99 NW2       29.66R
DEVILS LAKE    CLEAR     55  48  76 CALM      29.69R
$$

NDZ022-023-025-028>030-036>039-047>053-010600-
SOUTHEAST NORTH DAKOTA

CITY           SKY/WX    TMP DP  RH WIND       PRES   REMARKS
FARGO          CLOUDY    60  57  89 NW7       29.66R
JAMESTOWN      CLEAR     58  55  90 NW7       29.71R
$$




USA.gov is the U.S. government's official web portal to all federal, state and local government web resources and services.